Location: Franzen
(48.6167°N, 15.3833°E)
Time: 11:53:50
(UTC+00:00)

Transit 2A - All Passes

Search period start: 03 August 2021 00:00
Search period end: 13 August 2021 00:00
Orbit: 598 x 960 km, 66.7° (Epoch: 02 August)

Date Brightness Start Highest point End Pass type
(mag) Time Alt. Az. Time Alt. Az. Time Alt. Az.
03 Aug - 04:08:16 10° S 04:12:04 29° ESE 04:16:06 10° NE daylight
03 Aug - 05:50:48 10° WSW 05:55:02 42° NW 05:59:39 10° NNE daylight
03 Aug - 07:37:16 10° NW 07:39:38 13° NNW 07:42:04 10° N daylight
03 Aug - 09:24:39 10° N 09:25:12 10° N 09:25:43 10° NNE daylight
03 Aug - 11:06:36 10° NNW 11:10:29 20° NNE 11:14:36 10° E daylight
03 Aug - 12:49:08 10° NNW 12:54:32 71° NE 13:00:29 10° SE daylight
03 Aug - 14:33:00 10° WNW 14:37:23 24° WSW 14:42:03 10° SSW daylight
04 Aug - 03:34:53 10° SSE 03:38:06 20° ESE 03:41:28 10° ENE daylight
04 Aug - 05:16:21 10° SW 05:20:44 58° NW 05:25:31 10° NNE daylight
04 Aug - 07:02:09 10° WNW 07:05:02 16° NNW 07:08:04 10° NNE daylight
04 Aug - 10:32:34 10° NNW 10:35:57 17° NNE 10:39:32 10° ENE daylight
04 Aug - 12:15:00 10° NNW 12:20:16 53° NE 12:26:04 10° SE daylight
04 Aug - 13:58:26 10° NW 14:03:21 33° WSW 14:08:38 10° S daylight
05 Aug - 03:02:00 10° SE 03:04:10 13° ESE 03:06:24 10° ENE visible
05 Aug - 04:42:04 10° SW 04:46:30 82° NW 04:51:19 10° NE daylight
05 Aug - 06:27:10 10° WNW 06:30:30 19° NNW 06:34:02 10° NNE daylight
05 Aug - 08:15:38 10° N 08:15:48 10° N 08:15:59 10° N daylight
05 Aug - 09:58:31 10° N 10:01:23 14° NNE 10:04:21 10° NE daylight
05 Aug - 11:40:53 10° NNW 11:45:57 41° NE 11:51:30 10° ESE daylight
05 Aug - 13:24:01 10° NW 13:29:15 45° WSW 13:34:57 10° S daylight
06 Aug - 04:07:56 10° SSW 04:12:19 69° ESE 04:17:05 10° NE daylight
06 Aug - 05:52:17 10° W 05:56:01 24° NW 06:00:00 10° NNE daylight
06 Aug - 07:40:02 10° NNW 07:41:08 11° N 07:42:15 10° N daylight
06 Aug - 09:24:29 10° N 09:26:46 13° NNE 09:29:06 10° NE daylight
06 Aug - 11:06:47 10° NNW 11:11:35 32° NE 11:16:48 10° ESE daylight
06 Aug - 12:49:41 10° NW 12:55:07 62° WSW 13:01:03 10° SSE daylight
06 Aug - 14:35:51 10° W 14:37:27 11° WSW 14:39:04 10° WSW daylight
07 Aug - 03:33:59 10° S 03:38:13 47° ESE 03:42:46 10° NE daylight
07 Aug - 05:17:33 10° WSW 05:21:35 30° NW 05:25:55 10° NNE daylight
07 Aug - 07:04:42 10° NW 07:06:29 12° NNW 07:08:17 10° N daylight
07 Aug - 08:50:28 10° N 08:52:07 11° NNE 08:53:48 10° NNE daylight
07 Aug - 10:32:43 10° NNW 10:37:10 26° NE 10:41:58 10° E daylight
07 Aug - 12:15:27 10° NW 12:20:57 83° WSW 12:26:59 10° SSE daylight
07 Aug - 14:00:06 10° WNW 14:03:31 16° WSW 14:07:05 10° SW daylight
08 Aug - 03:00:15 10° S 03:04:09 32° ESE 03:08:21 10° NE visible
08 Aug - 04:42:57 10° WSW 04:47:12 40° NW 04:51:49 10° NNE daylight
08 Aug - 06:29:29 10° NW 06:31:51 13° NNW 06:34:17 10° N daylight
08 Aug - 08:16:24 10° N 08:17:26 10° N 08:18:28 10° NNE daylight
08 Aug - 09:58:39 10° NNW 10:02:42 21° NNE 10:07:01 10° E daylight
08 Aug - 11:41:15 10° NNW 11:46:43 75° NE 11:52:45 10° SE daylight
08 Aug - 13:25:12 10° WNW 13:29:32 23° WSW 13:34:07 10° SSW daylight
09 Aug - 02:26:47 10° SSE 02:30:10 22° ESE 02:33:45 10° ENE visible
09 Aug - 04:08:29 10° SW 04:12:53 55° NW 04:17:41 10° NNE daylight
09 Aug - 05:54:23 10° WNW 05:57:15 16° NNW 06:00:16 10° NNE daylight
09 Aug - 07:42:13 10° N 07:42:45 10° N 07:43:17 10° N daylight
09 Aug - 09:24:36 10° NNW 09:28:11 18° NNE 09:31:58 10° ENE daylight
09 Aug - 11:07:06 10° NNW 11:12:28 57° NE 11:18:21 10° SE daylight
09 Aug - 12:50:36 10° NW 12:55:30 31° WSW 13:00:45 10° S daylight
10 Aug - 01:53:45 10° SE 01:56:15 15° ESE 01:58:49 10° ENE visible
10 Aug - 03:34:10 10° SW 03:38:38 77° NW 03:43:30 10° NNE daylight
10 Aug - 05:19:23 10° WNW 05:22:42 19° NNW 05:26:14 10° NNE daylight
10 Aug - 07:07:24 10° N 07:08:03 10° N 07:08:43 10° N daylight
10 Aug - 08:50:34 10° NNW 08:53:37 15° NNE 08:56:49 10° ENE daylight
10 Aug - 10:32:58 10° NNW 10:38:10 43° NE 10:43:49 10° ESE daylight
10 Aug - 12:16:10 10° NW 12:21:25 43° WSW 12:27:06 10° S daylight
11 Aug - 03:00:01 10° SSW 03:04:26 75° ESE 03:09:17 10° NE visible
11 Aug - 04:44:29 10° W 04:48:12 23° NW 04:52:10 10° NNE daylight
11 Aug - 06:32:10 10° NNW 06:33:22 11° N 06:34:36 10° N daylight
11 Aug - 08:16:30 10° N 08:19:00 13° NNE 08:21:36 10° NE daylight
11 Aug - 09:58:52 10° NNW 10:03:48 34° NE 10:09:09 10° ESE daylight
11 Aug - 11:41:50 10° NW 11:47:18 59° WSW 11:53:15 10° SSE daylight
11 Aug - 13:28:35 10° W 13:29:34 10° WSW 13:30:34 10° WSW daylight
12 Aug - 02:26:01 10° SSW 02:30:19 51° ESE 02:34:59 10° NE visible
12 Aug - 04:09:44 10° W 04:13:45 29° NW 04:18:06 10° NNE daylight
12 Aug - 05:56:54 10° NW 05:58:42 12° NNW 06:00:33 10° N daylight
12 Aug - 07:42:26 10° N 07:44:21 12° NNE 07:46:20 10° NE daylight
12 Aug - 09:24:47 10° NNW 09:29:24 27° NE 09:34:21 10° E daylight
12 Aug - 11:07:34 10° NW 11:13:09 79° SW 11:19:12 10° SSE daylight
12 Aug - 12:52:24 10° WNW 12:55:39 15° WSW 12:59:02 10° SW daylight
